Погода в Брыкаланске

Россия / Республика Коми     65°28′27″N   54°16′03″E
темп.,
°C
ветер,
м/с
пор.,
м/с
влажн.,
%
обл.,
%
осадки,
мм/ч
давл.,
гПа
погр.,
м
22 апреля, чт
чт2200:00+4ююв41285100 0.0 1020363
03:00+4ююв41285100 0.0 1019400
06:00+5ююв51482100 0.0 1017617
09:00+6ю51277100 0.0 10161106
12:00+5ю61191100 0.1 10151086
15:00+4ю51297100 0.1 1015888
18:00+4ю51197100 0.4 10151000
21:00+4ююз51190100 0.6 1015981
23 апреля, пт
пт2300:00+3ююз41195100 0.1 1015806
03:00+3ю41195100 0.3 1016732
06:00+4ю51288100 0.0 10151063
09:00+4ююз51196100 0.4 1016988
12:00+5юз498594 0.4 10181057
15:00+6зюз477593 0.8 10191053
18:00+5зюз2581100 0.1 1021248
21:00+3юз23915 0.1 102342
24 апреля, сб
сб2400:00+2зюз11897 0.0 102310
03:00+1юв11879 0.0 102410
06:00+4в248087 0.0 1024122
09:00+9ююв357192 0.0 1024430
12:00+9ююв257195 0.0 1024416
15:00+13ююв345678 0.0 1023988
18:00+10юв267270 0.0 1022134
21:00+7юв268352 0.0 1022114
25 апреля, вс
вс2500:00+5вюв28865 0.0 1022145
03:00+4вюв3128740 0.0 1021258
06:00+6вюв3127229 0.0 1020564
09:00+11юв5105047 0.0 10191993
12:00+11юв595385 0.1 10171877
15:00+11юв595593 0.2 10151470
18:00+9вюв5116399 0.0 10141182
21:00+7вюв497677 0.1 1013389
26 апреля, пн
пн2600:00+6в398273 0.1 1011439
03:00+5вюв398690 0.1 1009478
06:00+6вюв3882100 0.0 1007937
09:00+6вюв4779100 0.1 1006878
12:00+4юв3695100 0.5 1005890
15:00+6ю367382 1.1 1005974
18:00+5ю26728 0.1 1004666
21:00+3вюв23835 0.1 100346